Flag for Czech Republic Weather past 2 weeks in Plzen, Czech Republic

Now
42 °F

Fog.


Feels Like: 39 °F
Forecast: 43 / 56 °F
Wind: 5 mph from Southeast

Location: Kocelovice

Current Time: Oct 25, 2014 at 5:28:55 PM

Latest Report: Oct 25, 2014 at 4:00 PM


Visibility: 6 mi

Pressure: 30.24 "Hg

Humidity: 88%

Dew point: 38 °F

Location of PlzenLocation

Historic Weather in Plzen — Graph

°F

Plzen temperature yesterday

Maximum temperature yesterday: 47 °F (at 12:00 PM)
Minimum temperature yesterday: 42 °F (at 8:00 AM)
Average temperature yesterday: 44 °F

Past Weeks' High & Low Weather Summary

 TemperatureHumidityPressure
High66 °F (Oct 11, 3:00 PM)100% (Oct 12, 7:00 AM)30.31 "Hg (Oct 12, 7:00 AM)
Low33 °F (Oct 25, 4:00 AM)57% (Oct 14, 4:00 PM)29.58 "Hg (Oct 21, 10:00 PM)
Average52 °F89%29.98 "Hg
* Reported Oct 10 4:00 PM — Oct 25 4:00 PM, Plzen, Weather by CustomWeather, © 2014

Note: Actual official high and low records may vary slightly from our data, if they occured in-between our weather recording intervals... More about our weather records

Advertising

Plzen weather history for previous 24 hours

 ConditionsComfort  
Time TempWeatherWind HumidityBarometerVisibility
4:00 PM
Oct 25
42 °FFog.5 mph88%30.24 "Hg6 mi
3:00 PM42 °FOvercast.3 mph86%30.23 "Hg9 mi
2:00 PM42 °FOvercast.N/A83%30.23 "Hg8 mi
1:00 PM43 °FLow clouds.N/A83%30.23 "Hg7 mi
12:00 PM41 °FFog.N/A87%30.24 "Hg4 mi
11:00 AM40 °FFog.N/A94%30.24 "Hg2 mi
10:00 AM38 °FFog.2 mph98%30.23 "Hg1 mi
9:00 AM38 °FDrizzle. Low clouds.2 mph99%30.23 "Hg1 mi
8:00 AM38 °FFog.N/A98%30.22 "Hg2 mi
7:00 AM37 °FFog.No wind99%30.21 "Hg3 mi
6:00 AM36 °FChilly.1 mph99%30.22 "Hg2 mi
5:00 AM35 °FFog.N/A100%30.22 "Hg1 mi
4:00 AM33 °FDuststorm.2 mph99%30.23 "Hg0 mi
3:00 AM35 °FDuststorm.N/A99%30.23 "Hg1 mi
2:00 AM36 °FDuststorm.2 mph100%30.23 "Hg1 mi
1:00 AM38 °FFog.2 mph98%30.23 "Hg2 mi
12:00 AM40 °FFog.1 mph94%30.22 "Hg6 mi
11:00 PM
Oct 24
42 °FQuite cool.2 mph89%30.23 "Hg7 mi
10:00 PM42 °FOvercast.1 mph88%30.23 "Hg8 mi
9:00 PM42 °FOvercast.2 mph86%30.23 "Hg9 mi
8:00 PM43 °FOvercast.N/A86%30.23 "Hg9 mi
7:00 PM43 °FOvercast.3 mph84%30.23 "Hg10 mi
6:00 PM44 °FOvercast.2 mph84%30.22 "Hg8 mi
5:00 PM44 °FOvercast.5 mph81%30.22 "Hg9 mi
Weather by CustomWeather, © 2014

See weather overviewHow to use our weather pages